Location: Clatteringshaws Loch
(55.0508°N, 4.2860°W)
Time: 03:19:08
(UTC+01:00)

Daily predictions for brighter satellites

Satellite Brightness Start Highest point End
(mag) Time Altitude Azimuth Time Altitude Azimuth Time Altitude Azimuth
Cosmos 468 Rocket 4.4 00:01:03 10° NNW 00:06:18 59° ENE 00:10:53 13° SE
COSMOS 2455 3.3 00:00:50 10° SW 00:06:50 66° NW 00:12:52 10° NE
ATLAS 3B R/B 2.9 00:01:21 10° SW 00:09:00 74° SE 00:16:23 10° NE
Cosmos 1814 Rocket 4.5 00:06:02 10° NNW 00:11:13 57° ENE 00:15:54 13° SE
Cosmos 1900 4.4 00:06:13 10° SSW 00:11:20 67° SE 00:16:26 10° NE
Cosmos 1470 2.8 00:09:41 10° NNW 00:13:37 77° W 00:16:12 20° S
Cosmos 1140 Rocket 3.6 00:09:20 15° S 00:13:37 60° ESE 00:18:48 10° NNE
Cosmos 2278 4.1 00:10:09 10° NNW 00:15:48 63° NE 00:21:07 11° SE
Cosmos 2026 Rocket 4.4 00:12:32 17° SSE 00:17:03 48° E 00:22:51 10° NNE
Cosmos 1980 Rocket 4.1 00:13:28 10° NNW 00:18:16 28° NNE 00:23:04 10° E
Cosmos 1953 3.9 00:16:09 10° NNW 00:19:34 28° W 00:22:46 11° SSW
COSMOS 2406 3.5 00:15:03 15° S 00:19:37 54° ESE 00:25:13 10° NE
Cosmos 1818 3.6 00:18:19 10° NW 00:23:51 85° NE 00:29:01 12° SE
Lacrosse 5 rocket 1.8 00:24:20 10° W 00:28:26 66° N 00:32:46 10° E
Genesis I 4.1 00:25:25 10° NW 00:29:22 50° NE 00:33:15 10° ESE
Cosmos 1689 Rocket 2.3 00:28:30 24° SSE 00:30:18 77° ENE 00:33:32 10° NNW
Cosmos 1607 4.4 00:27:57 16° S 00:32:27 42° ESE 00:38:15 10° NE
COSMOS 2487 3.1 00:34:06 23° SSE 00:35:54 42° ESE 00:39:20 10° NE
Cosmos 407 Rocket 4.4 00:31:37 10° SW 00:36:42 48° NW 00:41:46 10° NNE
H-2A R/B 2.6 00:33:43 10° NNE 00:37:33 52° ESE 00:39:45 22° S
Cosmos 2221 2.5 00:33:49 10° NNW 00:38:11 77° W 00:40:59 21° S
Cosmos 1697 Rocket 3.8 00:34:31 10° NNW 00:39:57 43° NE 00:45:22 10° ESE
Cosmos 2228 Rocket 3.5 00:35:57 10° N 00:40:20 56° ENE 00:43:25 18° SSE
Cosmos 405 Rocket 4.1 00:39:18 17° SE 00:41:19 26° E 00:44:32 10° NE
Cosmos 1340 2.6 00:40:15 21° S 00:42:40 85° ESE 00:46:30 10° NNE
USA 238 DEB 3.9 00:36:16 10° SSW 00:43:09 59° SE 00:50:03 10° NE
USA 238 3.9 00:36:26 10° SSW 00:43:15 58° SE 00:50:09 10° NE
Landsat 5 3.3 00:41:36 22° SSE 00:44:04 81° WSW 00:48:10 10° NNW
Cosmos 2082 Rocket 4.2 00:41:52 10° SE 00:44:42 14° E 00:47:32 10° ENE
Cosmos 614 Rocket 4.0 00:41:36 18° SSW 00:45:31 69° ESE 00:50:45 10° NNE
Cosmos 1076 Rocket 4.0 00:44:09 21° SSE 00:46:43 49° E 00:50:50 10° NNE
Cosmos 1417 Rocket 4.5 00:41:19 10° NNW 00:47:29 81° W 00:52:05 19° S
Cosmos 1763 Rocket 3.9 00:44:28 10° NNW 00:49:48 65° ENE 00:54:29 13° SE
SL-27 R/B 3.2 00:47:57 12° SW 00:50:56 46° WNW 00:54:12 10° NNE
Okean 3 Rocket 3.6 00:47:54 19° SSW 00:51:03 78° WNW 00:55:31 10° N
Lacrosse 4 Rocket 2.2 00:48:36 10° WSW 00:52:34 49° NW 00:56:38 10° NNE
Cosmos 1553 Rocket 4.1 00:46:43 10° N 00:53:03 88° ENE 00:57:56 18° S
Meteor 1-24 Rocket 4.0 00:51:57 19° S 00:56:20 65° E 01:02:12 10° NNE
Cosmos 1943 Rocket 4.0 00:53:13 10° WNW 00:56:48 18° W 01:00:22 10° SW
Cosmos 1707 3.0 01:00:53 20° SSW 01:03:31 68° WNW 01:07:27 10° N
Meteor 2-5 Rocket 4.0 01:03:47 16° SSW 01:08:37 71° WNW 01:14:24 10° NNE
ISS -3.0 01:06:39 10° WSW 01:09:46 42° S 01:12:54 10° E
CZ-4B R/B 2.6 01:09:33 21° SSW 01:11:30 37° W 01:15:00 10° NNW
Cosmos 1741 Rocket 4.3 01:07:13 12° SW 01:12:03 71° WNW 01:17:25 10° NNE
ALOS 2 3.4 01:10:39 19° SSW 01:13:22 39° W 01:17:31 10° NNW
CZ-2C R/B 3.7 01:11:06 13° SE 01:15:57 61° ENE 01:21:38 10° N
NOSS 3-2 (C) 4.2 01:13:37 19° S 01:17:35 38° ESE 01:23:47 10° NE
Cosmos 1656 3.8 01:11:49 10° NNW 01:17:35 80° NE 01:23:04 11° SE
SL-16 R/B 4.1 01:13:13 10° NNW 01:18:12 30° NE 01:23:10 10° E
S3M 4.2 01:12:47 10° NNW 01:19:00 65° W 01:23:34 19° S
Meteor 2-2 Rocket 4.4 01:15:48 10° NNW 01:21:31 73° ENE 01:26:11 16° SSE
Lacrosse 5 1.8 01:17:54 10° WNW 01:22:59 76° SSW 01:28:02 10° ESE
PSLV R/B 4.3 01:19:53 17° SSE 01:23:01 64° ENE 01:27:10 10° N
Cosmos 1408 Rocket 3.7 01:22:48 20° SSW 01:25:51 74° WNW 01:30:21 10° N
CZ-2C R/B 3.1 01:20:47 10° NNE 01:26:17 53° E 01:30:10 19° S
CZ-4C R/B 2.8 01:24:35 20° S 01:28:08 43° SE 01:34:00 10° NE
Cosmos 841 Rocket 3.5 01:22:52 10° NNW 01:28:09 79° WSW 01:32:13 17° SSE
Cosmos 1655 Rocket 4.3 01:23:43 16° SSW 01:28:51 65° WNW 01:35:07 10° N
Cosmos 2266 Rocket 4.3 01:24:48 18° S 01:29:40 62° E 01:35:59 10° NNE
Cosmos 2322 Rocket 3.8 01:26:36 10° NNW 01:31:47 35° NE 01:36:54 10° ESE
Cosmos 2369 4.1 01:31:11 10° NW 01:36:38 49° WSW 01:40:27 19° S
Cosmos 1726 4.3 01:34:01 10° NNE 01:36:54 21° ENE 01:39:46 10° ESE
Cosmos 1674 4.0 01:37:10 16° SE 01:39:31 30° E 01:42:52 10° NNE
BREEZE-M DEB (TANK) 3.6 01:30:57 10° WSW 01:42:31 48° S 01:46:04 10° ESE
ATLAS CENTAUR R/B 4.1 01:38:58 10° NW 01:43:17 28° N 01:47:26 10° ENE
In-Cosmos 22 4.3 01:39:41 19° S 01:43:43 69° E 01:49:24 10° NNE
Cosmos 1378 3.5 01:44:23 21° SSW 01:46:47 60° WNW 01:50:33 10° N
Cosmos 1151 Rocket 3.0 01:42:45 10° N 01:47:05 86° E 01:50:05 19° SSE
Cosmos 1743 Rocket 3.6 01:48:41 21° SSW 01:51:39 81° WNW 01:56:10 10° N
Helios 1A Rocket 3.4 01:48:20 10° N 01:52:19 52° WNW 01:55:15 17° SW
Elektron 3 4.4 01:52:22 10° WSW 01:57:22 72° NNW 02:00:22 10° NE
SL-23 DEB 3.7 01:55:10 10° WSW 01:58:30 41° S 02:01:29 10° E
ATLAS 3B R/B 3.7 01:52:45 10° W 02:00:12 54° NNW 02:07:19 10° NE
Cosmos 2058 4.4 01:58:27 12° SSE 02:01:44 29° E 02:05:21 10° NNE
Cosmos 2151 3.7 01:59:06 17° SSE 02:02:09 45° E 02:06:13 10° NNE
Meteor 2-20 4.5 01:57:45 18° SSW 02:02:32 85° WNW 02:08:46 10° NNE
NOSS 3-2 (A) 3.6 01:57:11 15° SW 02:02:35 72° SE 02:09:30 10° NE
Cosmos 1980 Rocket 2.2 01:57:24 10° NNW 02:03:04 85° ENE 02:08:44 10° SE
Cosmos 2360 Rocket 4.3 01:58:14 10° NNW 02:03:05 28° NNE 02:07:55 10° E
COSMOS 2406 4.3 01:58:44 10° WSW 02:04:09 42° NW 02:09:39 10° NNE
Genesis I 4.0 02:03:22 10° WNW 02:07:01 34° SW 02:09:03 21° S
Lacrosse 5 rocket 1.4 02:03:40 10° WNW 02:07:55 84° SSW 02:12:22 10° ESE
ASTEX 1 3.7 02:03:20 10° N 02:08:19 62° E 02:12:16 16° S
Cosmos 1500 Rocket 3.5 02:06:49 20° SSW 02:09:47 77° WNW 02:14:09 10° N
COSMOS 2487 4.4 02:08:40 10° WSW 02:11:43 25° NW 02:14:47 10° N
Cosmos 1486 Rocket 4.0 02:08:42 17° SSW 02:12:47 82° WNW 02:18:03 10° NNE
H-2A R/B 4.3 02:09:51 10° N 02:12:52 22° WNW 02:15:51 10° WSW
Cosmos 2344 4.1 02:07:49 16° SSW 02:14:03 55° SE 02:23:08 10° NE
Cosmos 405 Rocket 3.8 02:14:32 15° SW 02:17:19 35° WNW 02:20:50 10° N
Cosmos 1908 3.7 02:13:54 10° NNW 02:17:37 46° W 02:19:58 20° SSW
Cosmos 1607 4.3 02:13:20 10° WSW 02:19:33 65° NW 02:25:44 10° NE
Cosmos 405 3.0 02:16:17 10° NNW 02:19:54 78° WSW 02:22:27 18° S
Cosmos 1697 Rocket 3.0 02:18:36 10° NW 02:24:06 51° WSW 02:28:51 14° S
USA 215 4.5 02:18:55 10° ENE 02:24:13 26° SE 02:28:36 13° S
Cosmos 2082 Rocket 2.4 02:23:20 17° SSW 02:27:43 66° ESE 02:33:22 10° NE
Cosmos 1437 Rocket 3.2 02:24:15 10° NNW 02:28:05 46° W 02:30:37 19° SSW
BREEZE-M TANK 4.3 02:28:24 13° SW 02:32:13 19° S 02:34:53 10° SE
Lacrosse 4 Rocket 4.1 02:29:20 10° WNW 02:32:14 18° NNW 02:35:11 10° NNE
USA 161 4.0 02:31:45 10° ESE 02:33:13 15° ENE 02:34:41 10° NNE
USA 238 DEB 4.3 02:27:14 10° WSW 02:34:15 60° NNW 02:41:15 10° NE
USA 238 4.3 02:27:20 10° WSW 02:34:21 61° NNW 02:41:21 10° NE
Cosmos 1300 2.7 02:32:06 10° NNW 02:35:58 84° W 02:39:11 14° S
Aureole 1 Rocket 3.6 02:32:35 10° NW 02:36:33 46° WSW 02:41:01 13° S
ERS-2 3.5 02:33:58 10° NNE 02:37:21 32° E 02:40:33 11° SSE
Cosmos 540 Rocket 3.7 02:34:11 10° NNW 02:39:14 55° WSW 02:43:55 12° S
Cosmos 1833 Rocket 2.9 02:35:01 16° SSW 02:39:33 64° ESE 02:45:09 10° NE
Cosmos 332 Rocket 3.8 02:34:55 10° NNW 02:39:43 69° WSW 02:44:29 10° SSE
Cosmos 1441 Rocket 3.4 02:40:25 17° SSW 02:43:21 66° WNW 02:47:19 10° N
Cosmos 2360 4.2 02:38:23 10° NW 02:44:06 72° WSW 02:49:47 10° SSE
ISS -2.9 02:42:49 10° W 02:45:55 40° SSW 02:49:00 10° ESE
Cosmos 2242 Rocket 3.6 02:42:39 10° NNW 02:47:07 88° ENE 02:51:32 10° S
Meteor 1-27 4.3 02:41:48 10° NNW 02:47:40 72° W 02:53:23 10° S
Cosmos 1867 3.6 02:43:05 14° SW 02:47:51 79° SE 02:53:22 10° NE
SL-08 R/B 3.4 02:46:34 10° SSE 02:51:25 85° ENE 02:56:24 10° NNW
CZ-2C R/B 4.3 02:52:10 14° SSW 02:56:11 30° W 03:01:13 10° NNW
Cosmos 1354 Rocket 4.3 02:53:41 13° SW 02:58:24 67° WNW 03:03:43 10° NNE
Cosmos 1805 Rocket 3.6 02:56:52 14° SSW 03:00:37 82° W 03:05:06 10° N
Meteor 1-4 Rocket 3.1 02:57:23 10° N 03:01:07 62° ENE 03:04:52 10° SSE
SL-16 R/B 2.2 02:57:18 10° NW 03:03:01 87° WSW 03:08:43 10° SSE
Cosmos 1455 2.9 02:59:39 10° N 03:03:26 52° ENE 03:07:09 10° SSE
SL-16 R/B 3.4 02:58:16 10° SE 03:04:17 52° ENE 03:10:22 10° N
Lacrosse 5 2.8 03:01:11 10° WNW 03:05:25 27° SW 03:09:37 10° S
Cosmos 1503 Rocket 4.4 03:00:50 12° SW 03:05:43 62° WNW 03:11:01 10° NNE
CZ-2C R/B 3.8 03:01:20 10° N 03:06:24 36° WNW 03:11:23 10° SW
Cosmos 1707 Rocket 4.2 03:03:08 10° NNW 03:07:15 40° W 03:10:48 13° SSW
IRS-P3 4.3 03:02:19 10° NNE 03:07:40 69° ESE 03:12:57 10° S
NOSS 3-2 (C) 3.8 03:01:43 10° WSW 03:08:07 75° NW 03:15:14 10° NE
CENTAUR R/B 3.1 03:03:05 13° SSW 03:08:39 51° SE 03:15:31 10° NE
Cosmos 1633 Rocket 3.1 03:05:42 12° S 03:09:49 81° E 03:14:18 10° NNE
Cosmos 724 4.3 03:05:23 12° SW 03:10:47 81° SE 03:16:45 10° NE
Resurs 1-4 Rocket 4.2 03:07:15 10° NE 03:11:21 22° E 03:15:27 10° SE
COS B Rocket 3.7 03:09:32 10° NNW 03:11:29 21° W 03:12:46 14° SW
Cosmos 1726 2.6 03:08:58 10° NNW 03:12:32 45° W 03:15:42 12° SSW
Cosmos 1674 3.9 03:12:07 12° SW 03:15:12 30° WNW 03:18:34 10° N
Nadezhda 1 Rocket 4.1 03:09:22 10° NNW 03:15:31 64° W 03:21:33 10° S
Cosmos 1745 Rocket 4.1 03:09:22 11° S 03:15:38 87° W 03:22:01 10° N
Cosmos 2322 Rocket 2.2 03:10:40 10° NW 03:16:18 70° WSW 03:21:52 10° SSE
CZ-4C R/B 2.8 03:10:48 10° WSW 03:16:29 65° NNW 03:23:02 10° NE
Cosmos 1666 Rocket 3.6 03:13:31 12° SSW 03:17:28 75° WNW 03:21:49 10° N
Cosmos 1869 3.7 03:13:56 10° N 03:17:54 64° ENE 03:21:51 10° SSE
ATLAS CENTAUR R/B 2.8 03:18:33 10° NW 03:23:24 51° NNE 03:27:54 10° ESE
SL-14 R/B 3.2 03:20:35 12° SSW 03:24:09 75° WNW 03:28:01 10° N
Cosmos 968 Rocket 4.0 03:19:16 10° S 03:24:13 53° ESE 03:29:15 10° NE
Cosmos 2219 Rocket 4.4 03:21:43 10° NNW 03:26:38 30° NE 03:31:32 10° E
Cosmos 1470 Rocket 3.9 03:23:30 10° S 03:27:55 65° E 03:32:19 10° NNE
Cosmos 371 Rocket 3.9 03:27:14 10° NW 03:31:45 39° WSW 03:36:14 10° S
IRAS Rocket 4.3 03:27:00 10° NNE 03:32:31 75° WNW 03:37:59 10° SSW
Cosmos 1933 Rocket 3.8 03:28:17 10° S 03:32:38 70° E 03:37:03 10° NNE
Cosmos 1437 3.3 03:32:01 11° SSW 03:35:04 48° WNW 03:38:21 10° N
Meteor 1-11 4.5 03:29:50 10° SSW 03:35:36 67° WNW 03:41:26 10° N
Cosmos 923 Rocket 4.0 03:30:30 10° NNW 03:35:48 71° WSW 03:41:01 10° SSE
Cosmos 1703 3.3 03:33:02 10° S 03:37:01 88° WNW 03:41:01 10° NNE
Cosmos 2058 3.8 03:34:42 10° SW 03:38:36 38° WNW 03:42:31 10° N
Cosmos 1626 2.8 03:35:45 10° S 03:39:24 52° E 03:43:04 10° NNE
Cosmos 2151 4.4 03:36:03 10° WSW 03:39:41 26° WNW 03:43:18 10° N
Cosmos 1933 3.8 03:37:50 10° N 03:41:53 63° ENE 03:45:52 10° SSE
Cosmos 1271 Rocket 3.0 03:40:34 10° NNW 03:44:16 48° W 03:47:54 10° S
Cosmos 1680 Rocket 3.5 03:40:27 10° NNW 03:45:41 75° WSW 03:50:53 10° SSE
Cosmos 1980 Rocket 3.5 03:42:12 10° NW 03:46:26 22° WSW 03:50:41 10° SSW
Lacrosse 5 rocket 2.3 03:43:07 10° WNW 03:46:54 29° SW 03:50:47 10° SSE
Cosmos 2360 Rocket 2.3 03:42:11 10° NNW 03:47:52 87° ENE 03:53:30 10° SSE
Cosmos 304 Rocket 3.8 03:44:08 10° NNW 03:48:59 78° WSW 03:53:49 10° SSE
Okean 1-7 4.0 03:45:38 10° N 03:49:58 51° ENE 03:54:16 10° SSE
EO 1 Del DPAF 3.3 03:46:48 10° SSE 03:50:42 78° WSW 03:54:39 10° NNW
AQUA 3.9 03:46:45 10° NNE 03:51:32 74° WNW 03:56:17 10° SSW
Okean O Rocket 4.0 03:48:20 10° NE 03:51:39 20° E 03:54:56 10° SE
Sich 1 3.7 03:47:49 10° SW 03:52:02 43° WNW 03:56:19 10° N
ATLAS 3B R/B 4.2 03:45:14 10° WNW 03:52:18 43° N 03:59:00 10° ENE
CBERS-1 4.1 03:48:16 10° NNE 03:53:24 75° WNW 03:58:31 10° SSW
NOSS 3-2 (A) 4.4 03:47:30 10° W 03:53:52 53° NNW 04:00:54 10° NE
CZ-2D R/B 3.2 03:49:25 10° NNE 03:54:24 42° E 03:59:23 10° SSE
Cosmos 1777 Rocket 4.4 03:51:10 10° S 03:56:23 62° ESE 04:01:37 10° NNE
Cosmos 773 Rocket 4.4 03:52:05 10° NW 03:56:55 42° WSW 04:01:44 10° S
ADEOS 3.6 03:53:15 10° NNE 03:58:32 89° W 04:03:46 10° SSW
NPP 3.9 03:54:04 10° NNE 03:59:24 62° WNW 04:04:42 10° SW
Cosmos 2322 3.7 03:54:17 10° NW 04:00:03 81° WSW 04:05:47 10° SSE
Cosmos 1862 Rocket 4.1 03:55:56 10° NNW 04:00:11 42° W 04:04:23 10° SSW
IRS-1D 4.2 03:56:32 10° NNE 04:01:52 59° E 04:07:07 10° S
ARIANE 5 R/B 2.9 03:57:18 10° NNE 04:02:27 64° ESE 04:07:29 10° S
